NK0Z-13 Weather Reports


time (UTC)temp
F
wind
direction
speed
knots
gust
knots
rain 1hr
in
rain 24hr
in
rain mn
in
humidity
%
barometer
mb
20260505124903 51 9 5.2 10.4 0.00 0.00 0.00 61 1012.1
20260505123902 51 65 6.1 20.0 0.00 0.00 0.00 60 1012.1
20260505122900 51 71 4.3 19.1 0.00 0.00 0.00 59 1012.0
20260505121900 51 54 4.3 11.3 0.00 0.00 0.00 60 1011.7
20260505120858 51 73 6.1 16.5 0.00 0.00 0.00 60 1011.4
20260505115854 51 22 5.2 16.5 0.00 0.00 0.00 60 1011.8
20260505114849 52 81 5.2 13.0 0.00 0.00 0.00 59 1011.4
20260505113847 51 63 5.2 14.8 0.00 0.00 0.00 59 1011.6
20260505112845 52 357 2.6 13.0 0.00 0.00 0.00 59 1011.6
20260505111845 52 57 7.0 14.8 0.00 0.00 0.00 59 1011.2
20260505110842 52 81 8.7 16.5 0.00 0.00 0.00 58 1010.9
20260505101833 53 44 6.1 15.6 0.00 0.00 0.00 59 1009.4
20260505100830 53 52 3.5 20.0 0.00 0.00 0.00 58 1009.3
20260505095828 53 59 7.0 13.9 0.00 0.00 0.00 60 1009.7
20260505094827 53 50 2.6 13.0 0.00 0.00 0.00 64 1009.7
20260505093825 53 83 7.0 12.2 0.00 0.00 0.00 63 1009.3
20260505092820 53 110 4.3 15.6 0.00 0.00 0.00 61 1009.3
20260505091815 53 68 4.3 17.4 0.00 0.00 0.00 63 1009.5
20260505090811 52 10 7.0 11.3 0.00 0.00 0.00 68 1009.1
20260505085806 53 58 5.2 13.9 0.00 0.00 0.00 67 1008.7
20260505084801 53 69 7.8 19.1 0.00 0.00 0.00 65 1008.6
20260505083756 53 87 5.2 29.5 0.00 0.00 0.00 65 1008.4
20260505082756 54 77 4.3 16.5 0.00 0.00 0.00 66 1008.8
20260505081754 55 42 4.3 14.8 0.00 0.00 0.00 62 1009.1
20260505080754 56 14 2.6 11.3 0.00 0.00 0.00 63 1008.8
20260505075752 56 20 1.7 13.9 0.00 0.00 0.00 63 1008.3
20260505074746 57 43 3.5 12.2 0.00 0.00 0.00 63 1008.3
20260505073741 57 21 9.6 13.9 0.00 0.00 0.00 63 1008.2
20260505072741 57 104 3.5 11.3 0.00 0.00 0.00 64 1007.8
20260505071739 57 0 2.6 15.6 0.00 0.00 0.00 68 1007.9
20260505070734 57 110 4.3 11.3 0.00 0.00 0.00 69 1007.8
20260505065731 57 86 3.5 11.3 0.00 0.00 0.00 68 1007.3
20260505064731 57 68 6.1 11.3 0.00 0.00 0.00 70 1007.4
20260505063726 57 67 10.4 19.1 0.00 0.00 0.00 70 1007.1
20260505062724 56 84 7.8 13.0 0.00 0.00 0.00 73 1006.6
20260505061719 56 20 9.6 10.4 0.00 0.00 0.00 78 1006.7
20260505060714 56 15 4.3 9.6 0.00 0.00 0.00 80 1007.0
20260505055712 56 28 4.3 15.6 0.00 0.00 0.00 81 1006.5
20260505054712 56 53 2.6 16.5 0.00 0.00 0.00 82 1006.2
20260505053708 56 51 7.0 12.2 0.00 0.00 0.00 84 1005.9
20260505052707 57 0 8.7 13.0 0.00 0.00 0.00 84 1005.6
20260505051707 57 49 6.1 12.2 0.00 0.00 0.00 85 1006.1
20260505050703 57 346 7.8 10.4 0.00 0.00 0.00 85 1005.8
20260505041648 62 12 9.6 20.0 0.00 0.01 0.01 67 1005.9
20260505040648 67 4 7.8 16.5 0.00 0.01 0.01 65 1005.7
20260505035648 68 349 3.5 5.2 0.00 0.01 0.01 75 1005.5
20260505034646 71 359 2.6 4.3 0.02 0.01 0.01 68 1005.1
20260505033646 70 50 1.7 5.2 0.02 0.00 0.00 72 1005.5
20260505032642 72 196 2.6 5.2 0.00 0.00 0.00 65 1005.6
20260505031642 73 195 1.7 5.2 0.00 0.00 0.00 61 1004.8
20260505030640 73 167 4.3 11.3 0.00 0.00 0.00 60 1004.7
20260505025637 73 154 1.7 5.2 0.00 0.00 0.00 58 1004.4
20260505024633 73 174 1.7 3.5 0.00 0.00 0.00 58 1004.3
20260505023633 74 140 4.3 6.1 0.00 0.00 0.00 56 1004.1
20260505022628 73 132 3.5 6.1 0.00 0.00 0.00 56 1004.2
20260505021627 74 131 7.0 7.0 0.00 0.00 0.00 55 1003.9
20260505020626 74 122 1.7 2.6 0.00 0.00 0.00 54 1003.9
20260505015625 74 220 0.0 6.1 0.00 0.00 0.00 53 1003.9
20260505014624 75 195 3.5 7.0 0.00 0.00 0.00 53 1003.5
20260505013625 75 139 2.6 6.1 0.00 0.00 0.00 52 1003.2
20260505012620 76 154 2.6 4.3 0.00 0.00 0.00 51 1003.1
20260505011618 77 149 4.3 6.1 0.00 0.00 0.00 50 1003.2
20260505010616 77 136 1.7 6.1 0.00 0.00 0.00 49 1003.0
20260505005615 78 168 1.7 8.7 0.00 0.00 0.00 49 1003.0
20260505004615 78 166 3.5 7.0 0.00 0.00 0.00 48 1002.9
20260505003615 78 156 2.6 8.7 0.00 0.00 0.00 48 1002.9
20260505002614 79 149 2.6 7.0 0.00 0.00 0.00 46 1002.7
20260505001609 80 177 3.5 12.2 0.00 0.00 0.00 45 1003.0
20260505000609 80 200 4.3 13.0 0.00 0.00 0.00 44 1002.9
20260504235609 81 136 7.8 12.2 0.00 0.00 0.00 43 1003.1
20260504234609 82 167 4.3 9.6 0.00 0.00 0.00 41 1002.7
20260504233607 83 166 5.2 9.6 0.00 0.00 0.00 40 1002.8
20260504232607 84 161 6.1 12.2 0.00 0.00 0.00 39 1002.9
20260504231606 85 174 2.6 10.4 0.00 0.00 0.00 35 1002.9
20260504230604 86 146 2.6 5.2 0.00 0.00 0.00 34 1002.8
20260504225601 86 186 0.9 4.3 0.00 0.00 0.00 31 1002.8
20260504224600 85 123 2.6 6.1 0.00 0.00 0.00 32 1002.8
20260504223600 85 229 3.5 4.3 0.00 0.00 0.00 29 1003.1
20260504222559 85 101 3.5 6.1 0.00 0.00 0.00 30 1003.1
20260504221553 85 45 1.7 4.3 0.00 0.00 0.00 31 1003.2
20260504220552 84 144 6.1 7.8 0.00 0.00 0.00 31 1003.2
20260504215551 84 129 6.1 7.8 0.00 0.00 0.00 30 1003.3
20260504214550 84 208 1.7 6.1 0.00 0.00 0.00 31 1003.5
20260504213550 87 199 4.3 10.4 0.00 0.00 0.00 29 1003.4
20260504212548 86 111 3.5 7.8 0.00 0.00 0.00 30 1003.7
20260504211548 84 152 5.2 7.8 0.00 0.00 0.00 32 1003.8
20260504210548 83 136 1.7 9.6 0.00 0.00 0.00 32 1003.7
20260504205548 83 185 4.3 7.8 0.00 0.00 0.00 32 1004.0
20260504204544 84 170 2.6 5.2 0.00 0.00 0.00 33 1003.9
20260504203540 86 164 6.1 8.7 0.00 0.00 0.00 29 1004.2
20260504202539 86 184 2.6 4.3 0.00 0.00 0.00 29 1004.4
20260504201539 84 147 3.5 4.3 0.00 0.00 0.00 30 1004.4
20260504200538 86 132 4.3 7.8 0.00 0.00 0.00 29 1004.7
20260504195537 86 140 3.5 9.6 0.00 0.00 0.00 30 1004.8
20260504194537 86 158 2.6 3.5 0.00 0.00 0.00 30 1004.7
20260504193535 86 247 0.9 2.6 0.00 0.00 0.00 27 1005.0
20260504192531 84 75 1.7 7.0 0.00 0.00 0.00 27 1005.0
20260504191527 85 178 3.5 6.1 0.00 0.00 0.00 29 1005.1
20260504190525 85 120 3.5 4.3 0.00 0.00 0.00 29 1005.1
20260504185524 85 79 0.0 5.2 0.00 0.00 0.00 28 1005.4
20260504184521 84 257 3.5 5.2 0.00 0.00 0.00 30 1005.3
20260504183520 82 101 0.0 4.3 0.00 0.00 0.00 33 1005.6
20260504182521 83 64 5.2 6.1 0.00 0.00 0.00 32 1005.4
20260504181515 82 217 2.6 7.0 0.00 0.00 0.00 32 1005.7
20260504180512 82 130 2.6 7.0 0.00 0.00 0.00 34 1005.8
20260504175507 81 168 1.7 7.0 0.00 0.00 0.00 36 1005.7
20260504174502 80 136 2.6 7.8 0.00 0.00 0.00 38 1006.0
20260504173501 80 126 3.5 6.1 0.00 0.00 0.00 33 1005.7
20260504172500 80 180 2.6 4.3 0.00 0.00 0.00 35 1005.7
20260504171500 81 154 3.5 5.2 0.00 0.00 0.00 33 1005.9
20260504170459 80 156 3.5 9.6 0.00 0.00 0.00 35 1006.0
20260504150437 73 236 9.6 13.9 0.00 0.00 0.00 45 1005.8